This is the latest recevied weather packets stored in our database for station/object N1ORT. If no packets are shown the sender has not sent any weather packets the latest 10 day(s).
| Time | Temp. | Humidity | Pressure | Rain* | Wind** | Luminosity | Snow |
|---|---|---|---|---|---|---|---|
| 1787884931 | 20° C | 88% | 1014.8 hPa | 0 mm | - | 0 W/m² | - |
| 1787884626 | 20.56° C | 87% | 1015.2 hPa | 0 mm | - | 0 W/m² | - |
| 1787884322 | 20° C | 87% | 1015 hPa | 0 mm | - | 0 W/m² | - |
| 1787884017 | 20° C | 87% | 1015.1 hPa | 0 mm | - | 0 W/m² | - |
| 1787883712 | 20° C | 87% | 1015.1 hPa | 0 mm | - | 0 W/m² | - |
| 1787883408 | 20.56° C | 88% | 1015.2 hPa | 0 mm | - | 0 W/m² | - |
| 1787883106 | 20.56° C | 86% | 1014.9 hPa | 0 mm | - | 0 W/m² | - |
| 1787882803 | 20.56° C | 84% | 1014.9 hPa | 0 mm | - | 0 W/m² | - |
| 1787882499 | 20.56° C | 84% | 1014.8 hPa | 0 mm | - | 0 W/m² | - |
| 1787882195 | 20.56° C | 83% | 1015.2 hPa | 0 mm | - | 0 W/m² | - |
| 1787881590 | 21.11° C | 81% | 1015 hPa | 0 mm | - | 0 W/m² | - |
| 1787881286 | 21.11° C | 81% | 1014.7 hPa | 0 mm | - | 0 W/m² | - |
| 1787880981 | 21.11° C | 81% | 1014.9 hPa | 0 mm | - | 0 W/m² | - |
| 1787880684 | 21.11° C | 81% | 1014.9 hPa | 0 mm | - | 0 W/m² | - |
| 1787880379 | 21.11° C | 80% | 1014.9 hPa | 0 mm | - | 0 W/m² | - |
| 1787880074 | 21.11° C | 80% | 1014.8 hPa | 0 mm | - | 0 W/m² | - |
| 1787879769 | 21.11° C | 80% | 1014.8 hPa | 0 mm | - | 0 W/m² | - |
| 1787879464 | 21.11° C | 80% | 1014.9 hPa | 0 mm | - | 0 W/m² | - |
| 1787879159 | 21.67° C | 78% | 1014.8 hPa | 0 mm | - | 0 W/m² | - |
| 1787878856 | 21.67° C | 77% | 1014.9 hPa | 0 mm | - | 0 W/m² | - |
| 1787878555 | 21.67° C | 77% | 1014.7 hPa | 0 mm | - | 0 W/m² | - |
| 1787878250 | 21.67° C | 76% | 1014.6 hPa | 0 mm | - | 0 W/m² | - |
| 1787877945 | 21.67° C | 75% | 1014.9 hPa | 0 mm | - | 0 W/m² | - |
| 1787877636 | 21.67° C | 74% | 1014.7 hPa | 0 mm | - | 0 W/m² | - |
| 1787877331 | 22.22° C | 74% | 1014.7 hPa | 0 mm | - | 0 W/m² | - |
* Rain latest hour (hover to see other rain measurements)
** Current wind speed in m/s (hover to see current wind gust speed)